Local,Data,Vel_media,Vel_mediana,Vel_std,Volume
5129,2018-12-04 07:00:00,0.0,0.0,0.0,82
5129,2018-12-04 07:04:00,0.0,0.0,0.0,83
5129,2018-12-04 07:08:00,0.0,0.0,0.0,94
5129,2018-12-04 07:12:00,0.0,0.0,0.0,100
5129,2018-12-04 07:16:00,0.0,0.0,0.0,103
5129,2018-12-04 07:20:00,0.0,0.0,0.0,95
5129,2018-12-04 07:24:00,0.0,0.0,0.0,97
5129,2018-12-04 07:28:00,0.0,0.0,0.0,80
5129,2018-12-04 07:32:00,0.0,0.0,0.0,84
5129,2018-12-04 07:36:00,0.0,0.0,0.0,74
5129,2018-12-04 07:40:00,0.0,0.0,0.0,67
5129,2018-12-04 07:44:00,0.0,0.0,0.0,73
5129,2018-12-04 07:48:00,0.0,0.0,0.0,90
5129,2018-12-04 07:52:00,0.0,0.0,0.0,96
5129,2018-12-04 07:56:00,0.0,0.0,0.0,91
5129,2018-12-04 08:00:00,0.0,0.0,0.0,88
5129,2018-12-04 08:04:00,0.0,0.0,0.0,85
5129,2018-12-04 08:08:00,0.0,0.0,0.0,73
5129,2018-12-04 08:12:00,0.0,0.0,0.0,83
5129,2018-12-04 08:16:00,0.0,0.0,0.0,91
5129,2018-12-04 08:20:00,0.0,0.0,0.0,95
5129,2018-12-04 08:24:00,0.0,0.0,0.0,85
5129,2018-12-04 08:28:00,0.0,0.0,0.0,85
5129,2018-12-04 08:32:00,0.0,0.0,0.0,95
5129,2018-12-04 08:36:00,0.0,0.0,0.0,88
5129,2018-12-04 08:40:00,0.0,0.0,0.0,85
5129,2018-12-04 08:44:00,0.0,0.0,0.0,69
5129,2018-12-04 08:48:00,0.0,0.0,0.0,82
5129,2018-12-04 08:52:00,0.0,0.0,0.0,89
5129,2018-12-04 08:56:00,0.0,0.0,0.0,79
5151,2018-12-04 07:00:00,100.72058823529412,106.0,21.658713449915048,68
5151,2018-12-04 07:04:00,105.21794871794872,108.0,22.205444187895715,78
5151,2018-12-04 07:08:00,95.28205128205128,103.0,28.07869157231014,78
5151,2018-12-04 07:12:00,95.19148936170212,101.5,26.47509545739884,94
5151,2018-12-04 07:16:00,96.5,103.0,25.21328769802164,82
5151,2018-12-04 07:20:00,93.6952380952381,97.0,25.413928574066738,105
5151,2018-12-04 07:24:00,90.67567567567568,94.0,24.495699868330195,111
5151,2018-12-04 07:28:00,91.16666666666667,100.0,25.715054830659426,90
5151,2018-12-04 07:32:00,91.39655172413794,94.0,22.2659339371371,116
5151,2018-12-04 07:36:00,87.02479338842976,92.0,25.001154243326887,121
5151,2018-12-04 07:40:00,94.78301886792453,103.0,26.4204122807604,106
5151,2018-12-04 07:44:00,89.45736434108527,92.0,23.07257833715233,129
5151,2018-12-04 07:48:00,93.0576923076923,97.0,25.11906672369526,104
5151,2018-12-04 07:52:00,83.61344537815125,86.0,24.44991741821605,119
5151,2018-12-04 07:56:00,67.7175572519084,69.0,20.85749258813258,131
5151,2018-12-04 08:00:00,63.647619047619045,67.0,19.674749999575276,105
5151,2018-12-04 08:04:00,70.76923076923077,67.0,19.832061764282148,130
5151,2018-12-04 08:08:00,88.47560975609755,94.0,22.65371395150135,82
5151,2018-12-04 08:12:00,85.81651376146789,92.0,25.964065316001747,109
5151,2018-12-04 08:16:00,93.90598290598291,97.0,22.64645169206613,117
5151,2018-12-04 08:20:00,89.15,94.0,25.739713057507625,100
5151,2018-12-04 08:24:00,99.83962264150944,101.5,22.957989289944294,106
5151,2018-12-04 08:28:00,90.11428571428571,94.0,23.21443279750531,105
5151,2018-12-04 08:32:00,82.12962962962963,83.0,21.584908449162818,108
5151,2018-12-04 08:36:00,79.7816091954023,81.0,22.93287742843932,87
5151,2018-12-04 08:40:00,73.52777777777777,75.0,21.788983016829135,72
5151,2018-12-04 08:44:00,87.71929824561404,89.0,22.904383308101135,114
5151,2018-12-04 08:48:00,89.96,100.0,26.098275805117858,75
5151,2018-12-04 08:52:00,84.0873786407767,92.0,23.89482953183022,103
5151,2018-12-04 08:56:00,95.51666666666667,100.0,21.4338863623431,120
5194,2018-12-04 07:00:00,84.26315789473684,92.0,15.701528960451796,19
5194,2018-12-04 07:04:00,47.77777777777778,48.5,26.578530821954676,18
5194,2018-12-04 07:08:00,73.4578313253012,78.0,24.673132026963714,83
5194,2018-12-04 07:12:00,90.5,87.5,14.151774703998342,12
5194,2018-12-04 07:16:00,72.19047619047619,75.0,24.057470872099266,21
5194,2018-12-04 07:20:00,56.095238095238095,47.0,24.72833346973622,21
5194,2018-12-04 07:24:00,70.22222222222223,79.0,29.129640363595602,18
5194,2018-12-04 07:28:00,87.04761904761905,103.0,31.40702026074722,63
5194,2018-12-04 07:32:00,75.76923076923077,83.5,27.50317464193207,26
5194,2018-12-04 07:36:00,52.130434782608695,50.0,28.19139834615273,23
5194,2018-12-04 07:40:00,42.24324324324324,31.0,25.78264425431854,37
5194,2018-12-04 07:44:00,83.75,86.0,24.580367052679353,28
5194,2018-12-04 07:48:00,43.58536585365854,44.0,20.908944993200784,82
5194,2018-12-04 07:52:00,71.42105263157895,72.0,24.18290440573828,19
5194,2018-12-04 07:56:00,49.8,53.0,16.121931232537456,25
5194,2018-12-04 08:00:00,55.976190476190474,56.0,21.620324781791584,42
5194,2018-12-04 08:04:00,59.0,67.0,24.670688217860018,29
5194,2018-12-04 08:08:00,67.83928571428571,58.0,29.589172949647576,56
5194,2018-12-04 08:12:00,79.95833333333333,90.5,26.268644172599895,24
5194,2018-12-04 08:16:00,58.733333333333334,56.0,24.379094115349268,30
5194,2018-12-04 08:20:00,74.81818181818181,81.0,19.118797271034314,33
5194,2018-12-04 08:24:00,76.52941176470588,81.0,29.026103870177835,17
5194,2018-12-04 08:28:00,75.5625,69.0,23.61390051364565,80
5194,2018-12-04 08:32:00,62.125,64.0,17.782043947660284,24
5194,2018-12-04 08:36:00,75.0,75.0,24.60739339149536,22
5194,2018-12-04 08:40:00,54.38095238095238,56.0,20.345744241874282,63
5194,2018-12-04 08:44:00,57.81818181818182,57.0,26.18366696214294,22
5194,2018-12-04 08:48:00,59.35329341317365,61.0,20.183817281474393,167
5194,2018-12-04 08:52:00,29.25,26.5,19.82759020489715,16
5194,2018-12-04 08:56:00,59.47826086956522,56.0,29.233961516169064,23
5195,2018-12-04 07:00:00,65.85840707964601,67.0,17.456048233787186,339
5195,2018-12-04 07:04:00,58.83116883116883,58.0,18.370836932630368,154
5195,2018-12-04 07:08:00,52.67223382045929,53.0,15.142250231413314,479
5195,2018-12-04 07:12:00,57.573170731707314,58.0,15.434826756440982,164
5195,2018-12-04 07:16:00,48.68055555555556,47.0,28.08967975574141,144
5195,2018-12-04 07:20:00,54.10880829015544,56.0,16.09197442080774,193
5195,2018-12-04 07:24:00,51.40136054421769,53.0,16.9712326559466,147
5195,2018-12-04 07:28:00,60.59896729776248,58.0,20.71088167175272,581
5195,2018-12-04 07:32:00,62.111111111111114,58.0,21.91087075654323,153
5195,2018-12-04 07:36:00,53.55194805194805,56.0,19.03249447270359,154
5195,2018-12-04 07:40:00,40.267857142857146,42.0,13.837611799740134,224
5195,2018-12-04 07:44:00,45.06153846153846,44.0,14.47074303020249,65
5195,2018-12-04 07:48:00,33.12738853503185,28.0,15.130202161227476,314
5195,2018-12-04 07:52:00,55.439490445859875,53.0,19.620547046536625,157
5195,2018-12-04 07:56:00,45.59310344827586,44.0,16.665623530574397,145
5195,2018-12-04 08:00:00,38.49074074074074,37.5,10.198034804184369,216
5195,2018-12-04 08:04:00,44.585034013605444,44.0,13.008871334179847,147
5195,2018-12-04 08:08:00,59.52521008403362,58.0,16.946149848641546,476
5195,2018-12-04 08:12:00,62.16265060240964,64.0,18.10083012222216,166
5195,2018-12-04 08:16:00,45.45255474452555,47.0,15.50757443150989,137
5195,2018-12-04 08:20:00,52.36842105263158,50.0,22.338451264605194,190
5195,2018-12-04 08:24:00,49.432432432432435,50.0,19.707093982287095,148
5195,2018-12-04 08:28:00,57.23809523809524,61.0,19.142663677808905,609
5195,2018-12-04 08:32:00,43.60689655172414,44.0,14.333961493853664,145
5195,2018-12-04 08:36:00,58.838509316770185,61.0,18.64735256716017,161
5195,2018-12-04 08:40:00,38.542635658914726,33.0,28.87313125037479,258
5195,2018-12-04 08:44:00,41.80419580419581,39.0,15.103053856501228,143
5195,2018-12-04 08:48:00,37.690036900369,36.0,15.091092854648368,542
5195,2018-12-04 08:52:00,43.75524475524475,47.0,14.267177333284641,143
5195,2018-12-04 08:56:00,44.966442953020135,44.0,12.842821166128946,149
5196,2018-12-04 07:00:00,106.85714285714286,114.0,24.5385993313159,7
5196,2018-12-04 07:04:00,114.05882352941177,117.0,18.359161841691247,17
5196,2018-12-04 07:08:00,105.26666666666667,111.0,14.978397142297332,15
5196,2018-12-04 07:12:00,119.27777777777777,103.0,74.58576236596647,18
5196,2018-12-04 07:16:00,98.47058823529412,92.0,14.89596273768006,17
5196,2018-12-04 07:20:00,108.8,106.0,14.862224405711093,15
5196,2018-12-04 07:24:00,105.5909090909091,111.0,18.84942613982892,22
5196,2018-12-04 07:28:00,106.94444444444444,108.0,15.663641760542612,18
5196,2018-12-04 07:32:00,104.8,106.0,9.56198614030414,20
5196,2018-12-04 07:36:00,106.66666666666667,108.0,19.927248633347205,15
5196,2018-12-04 07:40:00,95.91304347826087,97.0,26.847910098922814,23
5196,2018-12-04 07:44:00,97.73684210526316,106.0,16.659472131370382,19
5196,2018-12-04 07:48:00,104.10714285714286,103.0,10.46100089296142,28
5196,2018-12-04 07:52:00,83.1,86.0,17.33712381189468,30
5196,2018-12-04 07:56:00,99.16666666666667,100.0,14.757950448801326,24
5196,2018-12-04 08:00:00,91.6,94.0,22.814469093099667,25
5196,2018-12-04 08:04:00,112.0,100.0,38.82331773560833,25
5196,2018-12-04 08:08:00,110.47368421052632,108.0,11.19210247874531,19
5196,2018-12-04 08:12:00,102.15384615384616,104.5,16.28911859541162,26
5196,2018-12-04 08:16:00,102.0,103.0,11.578716106143489,31
5196,2018-12-04 08:20:00,101.4074074074074,100.0,23.945867251042685,27
5196,2018-12-04 08:24:00,99.19047619047619,97.0,8.89844627500641,42
5196,2018-12-04 08:28:00,90.0,87.5,21.36707102384253,30
5196,2018-12-04 08:32:00,129.48,106.0,111.17820529822082,25
5196,2018-12-04 08:36:00,104.96551724137932,108.0,16.121154599338208,29
5196,2018-12-04 08:40:00,107.74193548387096,106.0,32.14754292522264,31
5196,2018-12-04 08:44:00,97.0625,93.0,17.99432780998872,16
5196,2018-12-04 08:48:00,106.04347826086956,103.0,11.891472348893801,23
5196,2018-12-04 08:52:00,101.51851851851852,94.0,28.886209606196267,27
5196,2018-12-04 08:56:00,125.20833333333333,97.0,147.44648626554903,48
5197,2018-12-04 07:00:00,87.91089108910892,92.0,24.25244471850003,202
5197,2018-12-04 07:04:00,86.08585858585859,86.0,21.358617942802404,198
5197,2018-12-04 07:08:00,86.72380952380952,86.0,19.417101542404367,210
5197,2018-12-04 07:12:00,67.67464114832536,69.0,18.88322866966342,209
5197,2018-12-04 07:16:00,68.95794392523365,64.0,18.605191548603347,214
5197,2018-12-04 07:20:00,85.72139303482587,86.0,27.093762936324506,201
5197,2018-12-04 07:24:00,72.56716417910448,72.0,20.677202818996346,201
5197,2018-12-04 07:28:00,72.4927536231884,72.0,21.059524876212645,207
5197,2018-12-04 07:32:00,54.637305699481864,53.0,15.422624648102845,193
5197,2018-12-04 07:36:00,57.88625592417062,58.0,16.236829115460544,211
5197,2018-12-04 07:40:00,60.25728155339806,58.0,17.35811668969373,206
5197,2018-12-04 07:44:00,62.311004784689,58.0,17.859599967658426,209
5197,2018-12-04 07:48:00,50.27040816326531,50.0,9.866459206242425,196
5197,2018-12-04 07:52:00,59.333333333333336,58.0,14.21255486982374,204
5197,2018-12-04 07:56:00,58.94285714285714,58.0,14.524573186411933,210
5197,2018-12-04 08:00:00,58.65024630541872,56.0,16.20875076692161,203
5197,2018-12-04 08:04:00,59.024752475247524,58.0,15.021191703296473,202
5197,2018-12-04 08:08:00,64.22660098522168,58.0,24.932937414040783,203
5197,2018-12-04 08:12:00,60.48148148148148,58.0,17.82524026074105,216
5197,2018-12-04 08:16:00,62.292682926829265,58.0,29.638379251054936,205
5197,2018-12-04 08:20:00,64.76635514018692,67.0,15.173227867847404,214
5197,2018-12-04 08:24:00,56.310344827586206,56.0,14.550602769975347,203
5197,2018-12-04 08:28:00,62.75773195876289,64.0,19.216467112891447,194
5197,2018-12-04 08:32:00,67.11274509803921,68.0,19.081934672641587,204
5197,2018-12-04 08:36:00,60.84158415841584,61.0,18.84592288581951,202
5197,2018-12-04 08:40:00,64.61734693877551,61.0,19.298771187187707,196
5197,2018-12-04 08:44:00,75.05853658536586,72.0,26.50779552015058,205
5197,2018-12-04 08:48:00,64.23923444976077,64.0,18.667129465668744,209
5197,2018-12-04 08:52:00,56.90425531914894,50.0,28.398640153079313,188
5197,2018-12-04 08:56:00,57.41711229946524,56.0,47.438101448473965,187
5198,2018-12-04 07:00:00,102.57142857142857,104.0,18.93191967069326,14
5198,2018-12-04 07:04:00,115.71428571428571,114.0,13.770050316330934,21
5198,2018-12-04 07:08:00,109.52631578947368,106.0,13.82577472634448,19
5198,2018-12-04 07:12:00,105.15384615384616,100.0,12.287162364612874,13
5198,2018-12-04 07:16:00,101.2,100.0,23.46486735526115,15
5198,2018-12-04 07:20:00,110.64285714285714,111.0,14.134557449234633,14
5198,2018-12-04 07:24:00,121.1875,122.0,8.848493280402788,16
5198,2018-12-04 07:28:00,113.4,114.0,11.222158531461904,20
5198,2018-12-04 07:32:00,108.93333333333334,106.0,17.798341281730508,15
5198,2018-12-04 07:36:00,108.75,108.0,12.598558814821887,20
5198,2018-12-04 07:40:00,106.78260869565217,108.0,13.6046667185102,23
5198,2018-12-04 07:44:00,108.6,106.0,20.42261818017791,25
5198,2018-12-04 07:48:00,114.04,117.0,13.062286680873811,25
5198,2018-12-04 07:52:00,93.57142857142857,94.0,19.213462542112048,21
5198,2018-12-04 07:56:00,113.38095238095238,114.0,12.658894858857906,21
5198,2018-12-04 08:00:00,108.3225806451613,111.0,16.797593273589708,31
5198,2018-12-04 08:04:00,110.21739130434783,111.0,9.004829622027238,23
5198,2018-12-04 08:08:00,107.08333333333333,108.0,14.506120647226263,24
5198,2018-12-04 08:12:00,107.0,104.5,18.748866632412742,26
5198,2018-12-04 08:16:00,110.23333333333333,114.0,15.727602209630298,30
5198,2018-12-04 08:20:00,116.33333333333333,119.0,11.649469727311041,24
5198,2018-12-04 08:24:00,110.82608695652173,106.0,15.74701176244688,23
5198,2018-12-04 08:28:00,107.37037037037037,106.0,11.13949366391126,27
5198,2018-12-04 08:32:00,114.375,108.0,20.64990262109896,24
5198,2018-12-04 08:36:00,105.72727272727273,103.0,13.547735070524727,22
5198,2018-12-04 08:40:00,101.14285714285714,100.0,22.477290126449216,21
5198,2018-12-04 08:44:00,105.625,105.5,14.354385639823604,32
5198,2018-12-04 08:48:00,113.26086956521739,117.0,13.253532603883897,23
5198,2018-12-04 08:52:00,107.52380952380952,100.0,13.786294090940638,21
5198,2018-12-04 08:56:00,101.77777777777777,100.0,10.308075002463376,27
5199,2018-12-04 07:00:00,94.2797619047619,93.0,14.967399941900917,168
5199,2018-12-04 07:04:00,96.67977528089888,97.0,14.810812051387748,178
5199,2018-12-04 07:08:00,98.74033149171271,97.0,12.573958004125137,181
5199,2018-12-04 07:12:00,99.10362694300518,100.0,10.928252629161276,193
5199,2018-12-04 07:16:00,87.4,89.0,16.051453579385665,180
5199,2018-12-04 07:20:00,90.71578947368421,89.0,15.474616975468402,190
5199,2018-12-04 07:24:00,91.9438202247191,92.0,16.5480703984181,178
5199,2018-12-04 07:28:00,87.63483146067416,89.0,18.911519229716948,178
5199,2018-12-04 07:32:00,86.38150289017341,89.0,19.517258434471703,173
5199,2018-12-04 07:36:00,95.5163043478261,94.0,15.089161435444279,184
5199,2018-12-04 07:40:00,98.53370786516854,100.0,15.114309781970249,178
5199,2018-12-04 07:44:00,100.2280701754386,100.0,20.25515261434335,171
5199,2018-12-04 07:48:00,91.03191489361703,92.0,14.353409572887195,188
5199,2018-12-04 07:52:00,85.62430939226519,86.0,19.084963982540177,181
5199,2018-12-04 07:56:00,92.57386363636364,92.0,20.068317570984124,176
5199,2018-12-04 08:00:00,99.59887005649718,103.0,13.81997068104937,177
5199,2018-12-04 08:04:00,95.74712643678161,94.0,17.156348959320535,174
5199,2018-12-04 08:08:00,101.11242603550296,100.0,15.539286599065276,169
5199,2018-12-04 08:12:00,93.22459893048128,92.0,28.24171463284044,187
5199,2018-12-04 08:16:00,92.27586206896552,95.5,18.728476451046326,174
5199,2018-12-04 08:20:00,93.28494623655914,92.0,15.476206297036919,186
5199,2018-12-04 08:24:00,94.67816091954023,94.0,14.993635839027744,174
5199,2018-12-04 08:28:00,96.66470588235295,94.0,31.321759099837433,170
5199,2018-12-04 08:32:00,84.07182320441989,86.0,18.48874526995973,181
5199,2018-12-04 08:36:00,85.31351351351351,86.0,18.519938758264583,185
5199,2018-12-04 08:40:00,92.07428571428571,94.0,19.09324281473072,175
5199,2018-12-04 08:44:00,90.33870967741936,92.0,16.291543369278894,186
5199,2018-12-04 08:48:00,100.17816091954023,100.0,17.858706367764274,174
5199,2018-12-04 08:52:00,91.87692307692308,92.0,21.382506357127756,195
5199,2018-12-04 08:56:00,91.9235294117647,89.0,22.299468760402586,170
5200,2018-12-04 07:00:00,115.0,114.0,9.649409884086753,19
5200,2018-12-04 07:04:00,118.57142857142857,119.0,13.888092773275995,14
5200,2018-12-04 07:08:00,120.8,117.0,13.489090241953145,10
5200,2018-12-04 07:12:00,115.875,115.0,12.00520720354297,8
5200,2018-12-04 07:16:00,115.0952380952381,111.0,13.877697078062925,21
5200,2018-12-04 07:20:00,115.9090909090909,111.0,10.78382627321625,11
5200,2018-12-04 07:24:00,107.41666666666667,108.0,16.802993177114157,24
5200,2018-12-04 07:28:00,118.625,117.0,13.865424623862049,16
5200,2018-12-04 07:32:00,115.28,114.0,11.013325262305354,25
5200,2018-12-04 07:36:00,119.3125,118.0,13.290190618146406,16
5200,2018-12-04 07:40:00,108.17391304347827,106.0,15.804637334175755,23
5200,2018-12-04 07:44:00,111.84,114.0,12.259961935775603,25
5200,2018-12-04 07:48:00,107.03571428571429,106.0,9.979542566734702,28
5200,2018-12-04 07:52:00,113.66666666666667,108.0,11.023783811550802,15
5200,2018-12-04 07:56:00,107.0,108.0,18.006943105369107,25
5200,2018-12-04 08:00:00,119.16666666666667,119.0,12.055020921249563,18
5200,2018-12-04 08:04:00,117.23529411764706,119.0,14.104650880847359,17
5200,2018-12-04 08:08:00,113.73913043478261,111.0,12.79991971318694,23
5200,2018-12-04 08:12:00,113.54166666666667,115.5,15.105366643987006,24
5200,2018-12-04 08:16:00,115.87096774193549,119.0,8.659260690089237,31
5200,2018-12-04 08:20:00,109.29166666666667,108.0,14.67467255146613,24
5200,2018-12-04 08:24:00,118.45,117.0,14.659198656923847,20
5200,2018-12-04 08:28:00,98.11904761904762,100.0,16.04445406948835,42
5200,2018-12-04 08:32:00,81.72413793103448,89.0,23.18542730701479,29
5200,2018-12-04 08:36:00,110.84375,111.0,9.112590988085062,32
5200,2018-12-04 08:40:00,105.48,106.0,13.395023951701864,25
5200,2018-12-04 08:44:00,123.46666666666667,125.0,11.831354630005494,15
5200,2018-12-04 08:48:00,112.84210526315789,108.0,17.87382679256254,19
5200,2018-12-04 08:52:00,73.07894736842105,76.5,30.389704496795627,38
5200,2018-12-04 08:56:00,110.54285714285714,114.0,13.399611182117663,35
5201,2018-12-04 07:00:00,96.45985401459853,94.0,15.052366727401342,137
5201,2018-12-04 07:04:00,80.14383561643835,83.0,23.21295409034315,146
5201,2018-12-04 07:08:00,79.94354838709677,83.0,21.06717958340095,124
5201,2018-12-04 07:12:00,76.03937007874016,78.0,22.509046355943614,127
5201,2018-12-04 07:16:00,66.65322580645162,69.0,20.017083904658985,124
5201,2018-12-04 07:20:00,62.19327731092437,67.0,20.989213255063053,119
5201,2018-12-04 07:24:00,63.984,69.0,20.64913651244714,125
5201,2018-12-04 07:28:00,71.19827586206897,78.0,23.618791276213205,116
5201,2018-12-04 07:32:00,76.00813008130082,81.0,18.95356531837802,123
5201,2018-12-04 07:36:00,72.89922480620154,78.0,22.91657593357655,129
5201,2018-12-04 07:40:00,43.463157894736845,42.0,17.416555175376434,95
5201,2018-12-04 07:44:00,44.81,48.5,22.18138950571042,100
5201,2018-12-04 07:48:00,52.830357142857146,54.5,19.869796170854386,112
5201,2018-12-04 07:52:00,61.1551724137931,65.5,21.98521378534687,116
5201,2018-12-04 07:56:00,66.7063492063492,69.0,22.789494934400796,126
5201,2018-12-04 08:00:00,96.60344827586206,94.0,16.84604420620168,116
5201,2018-12-04 08:04:00,97.70642201834862,100.0,17.259620372790472,109
5201,2018-12-04 08:08:00,76.1304347826087,81.0,25.3288967972788,115
5201,2018-12-04 08:12:00,70.104,75.0,20.488322401766077,125
5201,2018-12-04 08:16:00,75.50393700787401,78.0,24.814829800499272,127
5201,2018-12-04 08:20:00,68.048,67.0,20.520979037199012,125
5201,2018-12-04 08:24:00,74.25210084033614,78.0,23.522516615403816,119
5201,2018-12-04 08:28:00,55.638888888888886,56.0,21.892882099083288,108
5201,2018-12-04 08:32:00,39.04255319148936,36.0,20.279188385711144,94
5201,2018-12-04 08:36:00,58.80833333333333,61.0,19.566003715643117,120
5201,2018-12-04 08:40:00,75.09565217391304,75.0,25.948658456024837,115
5201,2018-12-04 08:44:00,101.0,100.0,14.985303534927093,119
5201,2018-12-04 08:48:00,94.0576923076923,94.0,16.676724622581492,104
5201,2018-12-04 08:52:00,35.166666666666664,36.0,14.066655128951371,90
5201,2018-12-04 08:56:00,60.6875,64.0,21.536907876965554,112
5202,2018-12-04 07:00:00,115.82352941176471,117.0,6.857799338323181,17
5202,2018-12-04 07:04:00,112.29629629629629,108.0,15.099197163616184,27
5202,2018-12-04 07:08:00,108.41666666666667,108.5,11.500658742661289,12
5202,2018-12-04 07:12:00,106.10526315789474,108.0,11.154942785062223,19
5202,2018-12-04 07:16:00,115.85714285714286,117.0,19.91302517018877,21
5202,2018-12-04 07:20:00,116.38461538461539,117.0,9.578956637150537,13
5202,2018-12-04 07:24:00,106.0,106.0,11.357816691600549,17
5202,2018-12-04 07:28:00,100.64,100.0,10.471707915458044,25
5202,2018-12-04 07:32:00,103.375,101.5,17.365163778193345,24
5202,2018-12-04 07:36:00,97.63636363636364,97.0,16.83405124696018,22
5202,2018-12-04 07:40:00,111.46428571428571,95.5,41.86528849718321,28
5202,2018-12-04 07:44:00,103.7,107.0,17.011456585854543,30
5202,2018-12-04 07:48:00,104.0,104.5,13.154257210447906,30
5202,2018-12-04 07:52:00,110.34782608695652,111.0,11.275914377969022,23
5202,2018-12-04 07:56:00,112.85185185185185,111.0,9.473459703109459,27
5202,2018-12-04 08:00:00,113.3,111.0,9.531664680366562,20
5202,2018-12-04 08:04:00,109.4074074074074,108.0,13.05096300384134,27
5202,2018-12-04 08:08:00,112.66666666666667,114.0,9.9537391505365,27
5202,2018-12-04 08:12:00,108.21875,106.0,8.914411582991205,32
5202,2018-12-04 08:16:00,121.13636363636364,118.0,23.73523692448575,22
5202,2018-12-04 08:20:00,103.21428571428571,101.5,15.142183273415835,28
5202,2018-12-04 08:24:00,106.8125,106.0,11.386005841920955,32
5202,2018-12-04 08:28:00,102.3,103.0,12.396189625904379,30
5202,2018-12-04 08:32:00,121.15,118.0,28.696735556138563,20
5202,2018-12-04 08:36:00,102.88888888888889,100.0,14.156632947500489,27
5202,2018-12-04 08:40:00,109.55555555555556,106.0,16.446494443715945,27
5202,2018-12-04 08:44:00,113.44,114.0,12.34598450239321,25
5202,2018-12-04 08:48:00,101.28571428571429,100.0,8.792854241614934,21
5202,2018-12-04 08:52:00,112.60606060606061,111.0,7.737649004782535,33
5202,2018-12-04 08:56:00,118.0909090909091,111.0,23.394971154602338,22
5203,2018-12-04 07:00:00,103.47058823529412,103.0,13.037422057599388,102
5203,2018-12-04 07:04:00,101.79245283018868,100.0,13.18925751990328,106
5203,2018-12-04 07:08:00,99.64356435643565,97.0,15.273888934004882,101
5203,2018-12-04 07:12:00,93.6774193548387,89.0,17.184105147166974,124
5203,2018-12-04 07:16:00,92.05128205128206,92.0,16.859380972931685,117
5203,2018-12-04 07:20:00,83.66386554621849,83.0,19.976374737243635,119
5203,2018-12-04 07:24:00,40.4054054054054,25.0,40.31313016291373,74
5203,2018-12-04 07:28:00,30.035714285714285,19.0,28.723210222879775,84
5203,2018-12-04 07:32:00,48.39784946236559,31.0,49.97785156945857,93
5203,2018-12-04 07:36:00,32.96590909090909,31.0,19.88440668084194,88
5203,2018-12-04 07:40:00,42.26136363636363,39.0,24.157764187377012,88
5203,2018-12-04 07:44:00,44.54807692307692,36.0,27.569463833591243,104
5203,2018-12-04 07:48:00,77.62931034482759,83.0,25.097905740593546,116
5203,2018-12-04 07:52:00,93.61111111111111,89.0,14.486944313952325,126
5203,2018-12-04 07:56:00,100.74380165289256,100.0,18.178984627686546,121
5203,2018-12-04 08:00:00,93.01709401709402,94.0,17.284128111823055,117
5203,2018-12-04 08:04:00,95.52427184466019,94.0,15.929898304879645,103
5203,2018-12-04 08:08:00,94.01851851851852,93.0,28.637594231921394,108
5203,2018-12-04 08:12:00,96.4957264957265,94.0,16.513121183922056,117
5203,2018-12-04 08:16:00,88.52631578947368,83.0,18.249602020786465,114
5203,2018-12-04 08:20:00,97.45744680851064,97.0,13.939704948680946,94
5203,2018-12-04 08:24:00,94.71311475409836,92.0,16.794075848541272,122
5203,2018-12-04 08:28:00,93.74166666666666,93.0,17.62327330278805,120
5203,2018-12-04 08:32:00,97.71304347826087,94.0,22.30009252494034,115
5203,2018-12-04 08:36:00,94.91379310344827,94.0,17.814780851630033,116
5203,2018-12-04 08:40:00,93.80869565217391,94.0,18.459959348843256,115